| time (UTC) | temp C | wind direction | speed KPH | gust KPH | rain 1hr cm | rain 24hr cm | rain mn cm | humidity % | barometer mb |
| 20260509224535 | 11 | 158 | 4.8 | 16.1 | 0.03 | 1.09 | 1.09 | 89 | 954.1 |
| 20260509223034 | 11 | 140 | 8.0 | 17.7 | 0.03 | 1.09 | 1.09 | 89 | 954.0 |
| 20260509221533 | 11 | 141 | 8.0 | 22.5 | 0.03 | 1.09 | 1.09 | 90 | 953.8 |
| 20260509220033 | 11 | 172 | 9.7 | 24.1 | 0.03 | 1.09 | 1.09 | 90 | 954.0 |
| 20260509214529 | 11 | 150 | 9.7 | 25.7 | 0.00 | 1.07 | 1.07 | 91 | 954.1 |
| 20260509213032 | 11 | 138 | 8.0 | 17.7 | 0.00 | 1.07 | 1.07 | 93 | 954.0 |
| 20260509211524 | 10 | 148 | 6.4 | 19.3 | 0.00 | 1.07 | 1.07 | 95 | 954.1 |
| 20260509210023 | 10 | 155 | 6.4 | 14.5 | 0.00 | 1.07 | 1.07 | 95 | 954.5 |
| 20260509204521 | 10 | 100 | 6.4 | 12.9 | 0.00 | 1.07 | 1.07 | 95 | 954.6 |
| 20260509203019 | 10 | 130 | 4.8 | 11.3 | 0.00 | 1.07 | 1.07 | 95 | 954.6 |
| 20260509201518 | 10 | 106 | 4.8 | 14.5 | 0.03 | 1.07 | 1.07 | 95 | 954.6 |
| 20260509200017 | 9 | 167 | 8.0 | 14.5 | 0.05 | 1.07 | 1.07 | 95 | 954.9 |
| 20260509194517 | 10 | 131 | 6.4 | 12.9 | 0.13 | 1.07 | 1.07 | 95 | 954.9 |
| 20260509193025 | 10 | 128 | 6.4 | 14.5 | 0.18 | 1.07 | 1.07 | 95 | 955.0 |
| 20260509191516 | 10 | 134 | 4.8 | 12.9 | 0.18 | 1.04 | 1.04 | 95 | 955.0 |
| 20260509190114 | 10 | 143 | 6.4 | 14.5 | 0.15 | 1.02 | 1.02 | 95 | 955.3 |
| 20260509184527 | 9 | 130 | 8.0 | 14.5 | 0.08 | 0.94 | 0.94 | 94 | 955.2 |
| 20260509183008 | 9 | 113 | 9.7 | 14.5 | 0.03 | 0.89 | 0.89 | 94 | 955.2 |
| 20260509181505 | 9 | 121 | 4.8 | 14.5 | 0.00 | 0.86 | 0.86 | 94 | 955.2 |
| 20260509180002 | 9 | 106 | 9.7 | 20.9 | 0.00 | 0.86 | 0.86 | 94 | 955.2 |
| 20260509174621 | 9 | 122 | 12.9 | 19.3 | 0.03 | 0.86 | 0.86 | 94 | 955.2 |
| 20260509173059 | 9 | 146 | 8.0 | 22.5 | 0.03 | 0.86 | 0.86 | 94 | 955.1 |
| 20260509171559 | 9 | 86 | 12.9 | 22.5 | 0.05 | 0.86 | 0.86 | 94 | 954.9 |
| 20260509170059 | 8 | 109 | 14.5 | 22.5 | 0.05 | 0.86 | 0.86 | 94 | 955.1 |
| 20260509164553 | 9 | 66 | 14.5 | 22.5 | 0.03 | 0.84 | 0.84 | 95 | 955.1 |
| 20260509163056 | 9 | 87 | 14.5 | 22.5 | 0.05 | 0.84 | 0.84 | 95 | 955.1 |
| 20260509161551 | 9 | 100 | 14.5 | 22.5 | 0.03 | 0.81 | 0.81 | 95 | 955.2 |
| 20260509160049 | 9 | 89 | 12.9 | 25.7 | 0.03 | 0.81 | 0.81 | 95 | 955.4 |
| 20260509154546 | 8 | 125 | 16.1 | 25.7 | 0.05 | 0.81 | 0.81 | 95 | 955.5 |
| 20260509153055 | 8 | 94 | 17.7 | 25.7 | 0.05 | 0.79 | 0.79 | 95 | 955.6 |
| 20260509151542 | 8 | 95 | 17.7 | 29.0 | 0.08 | 0.79 | 0.79 | 95 | 955.7 |
| 20260509150041 | 8 | 105 | 19.3 | 29.0 | 0.10 | 0.79 | 0.79 | 95 | 956.1 |
| 20260509144537 | 8 | 80 | 19.3 | 25.7 | 0.10 | 0.76 | 0.76 | 95 | 956.1 |
| 20260509143033 | 8 | 114 | 17.7 | 25.7 | 0.08 | 0.71 | 0.71 | 96 | 956.1 |
| 20260509141532 | 8 | 85 | 16.1 | 24.1 | 0.08 | 0.71 | 0.71 | 95 | 956.1 |
| 20260509140028 | 7 | 75 | 12.9 | 24.1 | 0.08 | 0.69 | 0.69 | 96 | 956.1 |
| 20260509134528 | 7 | 77 | 14.5 | 24.1 | 0.10 | 0.66 | 0.66 | 96 | 956.2 |
| 20260509133026 | 7 | 76 | 17.7 | 24.1 | 0.15 | 0.66 | 0.66 | 96 | 956.0 |
| 20260509131523 | 7 | 47 | 11.3 | 19.3 | 0.15 | 0.64 | 0.64 | 96 | 956.3 |
| 20260509130032 | 7 | 80 | 14.5 | 22.5 | 0.18 | 0.61 | 0.61 | 95 | 956.4 |
| 20260509124522 | 7 | 81 | 14.5 | 22.5 | 0.15 | 0.56 | 0.56 | 95 | 956.5 |
| 20260509123021 | 7 | 77 | 14.5 | 20.9 | 0.13 | 0.51 | 0.51 | 95 | 956.5 |
| 20260509121525 | 7 | 88 | 11.3 | 20.9 | 0.10 | 0.46 | 0.46 | 95 | 956.6 |
| 20260509120019 | 7 | 86 | 12.9 | 16.1 | 0.10 | 0.43 | 0.43 | 95 | 956.5 |
| 20260509114517 | 7 | 103 | 11.3 | 22.5 | 0.15 | 0.41 | 0.41 | 95 | 956.7 |
| 20260509113016 | 7 | 100 | 12.9 | 27.4 | 0.18 | 0.38 | 0.38 | 95 | 956.6 |
| 20260509111513 | 7 | 76 | 17.7 | 27.4 | 0.23 | 0.36 | 0.36 | 95 | 956.6 |
| 20260509110111 | 7 | 84 | 14.5 | 22.5 | 0.23 | 0.33 | 0.33 | 95 | 956.6 |
| 20260509104511 | 7 | 108 | 12.9 | 19.3 | 0.15 | 0.25 | 0.25 | 94 | 956.4 |
| 20260509103008 | 7 | 82 | 12.9 | 19.3 | 0.08 | 0.18 | 0.18 | 94 | 956.6 |
| 20260509101510 | 7 | 107 | 9.7 | 16.1 | 0.03 | 0.13 | 0.13 | 94 | 956.4 |
| 20260509100006 | 7 | 94 | 11.3 | 16.1 | 0.00 | 0.10 | 0.10 | 94 | 956.4 |
| 20260509094503 | 7 | 86 | 11.3 | 17.7 | 0.03 | 0.10 | 0.10 | 94 | 956.2 |
| 20260509093002 | 7 | 86 | 8.0 | 14.5 | 0.03 | 0.10 | 0.10 | 94 | 956.3 |
| 20260509091607 | 7 | 84 | 8.0 | 16.1 | 0.03 | 0.10 | 0.10 | 94 | 956.2 |
| 20260509090105 | 7 | 86 | 8.0 | 16.1 | 0.03 | 0.10 | 0.10 | 94 | 956.5 |
| 20260509084602 | 7 | 97 | 11.3 | 16.1 | 0.03 | 0.08 | 0.08 | 94 | 956.5 |
| 20260509083100 | 7 | 93 | 9.7 | 16.1 | 0.03 | 0.08 | 0.08 | 93 | 956.7 |
| 20260509081554 | 7 | 86 | 8.0 | 14.5 | 0.03 | 0.08 | 0.08 | 93 | 956.9 |
| 20260509080054 | 7 | 101 | 6.4 | 14.5 | 0.03 | 0.08 | 0.08 | 93 | 957.2 |
| 20260509074554 | 7 | 97 | 8.0 | 16.1 | 0.00 | 0.05 | 0.05 | 92 | 957.0 |
| 20260509073051 | 7 | 81 | 8.0 | 14.5 | 0.03 | 0.05 | 0.05 | 91 | 956.9 |
| 20260509071548 | 7 | 112 | 6.4 | 11.3 | 0.05 | 0.05 | 0.05 | 91 | 956.9 |
| 20260509070046 | 7 | 155 | 3.2 | 8.0 | 0.05 | 0.05 | 0.05 | 91 | 956.7 |
| 20260509064544 | 7 | 138 | 3.2 | 6.4 | 0.05 | 0.05 | 0.05 | 90 | 957.0 |
| 20260509063041 | 7 | 115 | 3.2 | 9.7 | 0.03 | 0.03 | 0.03 | 89 | 957.2 |
| 20260509061543 | 7 | 102 | 4.8 | 9.7 | 0.00 | 0.00 | 0.00 | 87 | 957.4 |
| 20260509060048 | 7 | 98 | 4.8 | 9.7 | 0.00 | 0.00 | 0.00 | 86 | 957.5 |
| 20260509054539 | 7 | 106 | 4.8 | 11.3 | 0.00 | 0.00 | 0.00 | 84 | 957.6 |
| 20260509053101 | 7 | 106 | 6.4 | 12.9 | 0.00 | 0.00 | 0.00 | 83 | 957.6 |
| 20260509051542 | 7 | 120 | 4.8 | 14.5 | 0.00 | 0.00 | 0.00 | 83 | 957.6 |
| 20260509050032 | 7 | 81 | 4.8 | 14.5 | 0.00 | 0.00 | 0.00 | 82 | 957.4 |
| 20260509044532 | 7 | 103 | 6.4 | 12.9 | 0.00 | 0.00 | 0.00 | 81 | 957.7 |
| 20260509043030 | 7 | 90 | 6.4 | 12.9 | 0.00 | 0.00 | 0.00 | 79 | 957.9 |
| 20260509041526 | 7 | 71 | 6.4 | 14.5 | 0.00 | 0.00 | 0.00 | 79 | 957.8 |
| 20260509040028 | 7 | 98 | 4.8 | 11.3 | 0.00 | 0.00 | 0.00 | 78 | 957.9 |
| 20260509034521 | 7 | 96 | 3.2 | 9.7 | 0.00 | 0.00 | 0.00 | 78 | 957.8 |
| 20260509033021 | 7 | 74 | 4.8 | 9.7 | 0.00 | 0.00 | 0.00 | 78 | 957.9 |
| 20260509031522 | 7 | 73 | 4.8 | 8.0 | 0.00 | 0.00 | 0.00 | 75 | 957.9 |
| 20260509030032 | 7 | 71 | 3.2 | 6.4 | 0.00 | 0.00 | 0.00 | 72 | 958.0 |
| 20260509024519 | 7 | 71 | 0.0 | 3.2 | 0.00 | 0.00 | 0.00 | 72 | 958.1 |
| 20260509023022 | 7 | 71 | 4.8 | 9.7 | 0.00 | 0.00 | 0.00 | 70 | 957.8 |
| 20260509021530 | 7 | 82 | 11.3 | 16.1 | 0.00 | 0.00 | 0.00 | 67 | 958.0 |
| 20260509020018 | 7 | 57 | 8.0 | 11.3 | 0.00 | 0.00 | 0.00 | 67 | 958.1 |
| 20260509014517 | 7 | 65 | 6.4 | 9.7 | 0.00 | 0.00 | 0.00 | 67 | 958.0 |
| 20260509013017 | 7 | 52 | 4.8 | 9.7 | 0.00 | 0.00 | 0.00 | 66 | 958.0 |
| 20260509011517 | 7 | 64 | 4.8 | 8.0 | 0.00 | 0.00 | 0.00 | 66 | 957.9 |
| 20260509010017 | 8 | 44 | 4.8 | 6.4 | 0.00 | 0.00 | 0.00 | 64 | 957.6 |
| 20260509004523 | 8 | 22 | 3.2 | 8.0 | 0.00 | 0.00 | 0.00 | 63 | 957.3 |
| 20260509003015 | 9 | 24 | 4.8 | 6.4 | 0.00 | 0.00 | 0.00 | 59 | 957.2 |
| 20260509001515 | 9 | 12 | 3.2 | 4.8 | 0.00 | 0.00 | 0.00 | 58 | 957.1 |
| 20260509000014 | 9 | 338 | 0.0 | 4.8 | 0.00 | 0.00 | 0.00 | 57 | 956.9 |
| 20260508234515 | 10 | 337 | 0.0 | 1.6 | 0.00 | 0.00 | 0.00 | 56 | 956.8 |
| 20260508233013 | 10 | 337 | 0.0 | 4.8 | 0.00 | 0.00 | 0.00 | 58 | 956.6 |
| 20260508231512 | 10 | 337 | 1.6 | 4.8 | 0.00 | 0.00 | 0.00 | 57 | 956.6 |
| 20260508230012 | 10 | 337 | 0.0 | 1.6 | 0.00 | 0.00 | 0.00 | 57 | 956.6 |